When you browse on this site, cookies collect data to enhance your experience and personalize the content and advertising you see.
Visit our Privacy Policy to learn more. By continuing to use the site, you agree to this use of cookies and data.
  • In Portugal
  • List of Countries
  • For 7 days
  • Water Temperature
  • Satellite Maps
  • Weather Map
  • Weather Widgets
  • user-avatar
    Login

    Hourly Weather Megri

    Today, 15 December, Saturday

    Time Temperature Precipitation Wind Pressure Humidity
    00:00 -2°C° 0 mm 2 mps 624 mmHg 68%
    01:00 -2°C° 0 mm 2 mps 624 mmHg 67%
    02:00 -2°C° 0 mm 2 mps 624 mmHg 66%
    03:00 -2°C° 0 mm 2 mps 624 mmHg 65%
    04:00 -2°C° 0 mm 2 mps 624 mmHg 65%
    05:00 -2°C° 0 mm 2 mps 624 mmHg 65%
    06:00 -2°C° 0 mm 2 mps 624 mmHg 65%
    07:00 -1°C° 0 mm 2 mps 625 mmHg 62%
    08:00 +1°C° 0 mm 2 mps 625 mmHg 59%
    09:00 +2°C° 0 mm 2 mps 626 mmHg 57%
    10:00 +2°C° 0 mm 2 mps 626 mmHg 53%
    11:00 +3°C° 0 mm 2 mps 626 mmHg 50%
    12:00 +4°C° 0 mm 2 mps 626 mmHg 47%
    13:00 +4°C° 0 mm 2 mps 625 mmHg 47%
    14:00 +5°C° 0 mm 2 mps 625 mmHg 47%
    15:00 +5°C° 0 mm 2 mps 625 mmHg 47%
    16:00 +5°C° 0 mm 1 mps 625 mmHg 49%
    17:00 +3°C° 0 mm 1 mps 625 mmHg 52%
    18:00 +2°C° 0 mm 1 mps 625 mmHg 55%
    19:00 +2°C° 0 mm 1 mps 625 mmHg 55%
    20:00 +2°C° 0 mm 1 mps 625 mmHg 55%
    21:00 +2°C° 0 mm 1 mps 624 mmHg 55%
    22:00 +2°C° 0 mm 1 mps 624 mmHg 56%
    23:00 +1°C° 0 mm 1 mps 624 mmHg 56%

    Tomorrow, 16 December, Sunday

    Time Temperature Precipitation Wind Pressure Humidity
    00:00 +1°C° 0 mm 1 mps 624 mmHg 56%
    01:00 +1°C° 0 mm 1 mps 624 mmHg 56%
    02:00 +1°C° 0 mm 1 mps 624 mmHg 56%
    03:00 +1°C° 0 mm 1 mps 624 mmHg 56%
    04:00 -1°C° 0 mm 2 mps 624 mmHg 57%
    05:00 -1°C° 0 mm 2 mps 624 mmHg 57%
    06:00 -1°C° 0 mm 2 mps 623 mmHg 57%
    07:00 +1°C° 0 mm 2 mps 624 mmHg 55%
    08:00 +2°C° 0 mm 2 mps 625 mmHg 53%
    09:00 +3°C° 0 mm 2 mps 625 mmHg 50%
    10:00 +4°C° 0 mm 2 mps 625 mmHg 49%
    11:00 +5°C° 0 mm 2 mps 625 mmHg 48%
    12:00 +6°C° 0 mm 2 mps 625 mmHg 46%
    13:00 +6°C° 0 mm 2 mps 625 mmHg 46%
    14:00 +6°C° 0 mm 2 mps 625 mmHg 45%
    15:00 +6°C° 0 mm 2 mps 625 mmHg 45%
    16:00 +6°C° 0 mm 1 mps 624 mmHg 48%
    17:00 +5°C° 0 mm 1 mps 624 mmHg 51%
    18:00 +4°C° 0 mm 1 mps 624 mmHg 53%
    19:00 +3°C° 0 mm 1 mps 624 mmHg 54%
    20:00 +3°C° 0 mm 1 mps 624 mmHg 54%
    21:00 +3°C° 0 mm 1 mps 624 mmHg 54%
    22:00 +3°C° 0 mm 1 mps 624 mmHg 54%
    23:00 +3°C° 0 mm 1 mps 624 mmHg 54%

    Day after tomorrow, 17 December, Monday

    Time Temperature Precipitation Wind Pressure Humidity
    00:00 +2°C° 0 mm 1 mps 624 mmHg 54%
    01:00 +2°C° 0 mm 1 mps 624 mmHg 55%
    02:00 +2°C° 0 mm 1 mps 624 mmHg 55%
    03:00 +2°C° 0 mm 1 mps 624 mmHg 55%
    04:00 +2°C° 0 mm 1 mps 623 mmHg 56%
    05:00 +2°C° 0 mm 1 mps 623 mmHg 57%
    06:00 +1°C° 0 mm 1 mps 623 mmHg 59%
    07:00 +2°C° 0 mm 1 mps 623 mmHg 57%
    08:00 +3°C° 0 mm 1 mps 624 mmHg 55%
    09:00 +4°C° 0 mm 1 mps 624 mmHg 54%
    10:00 +5°C° 0 mm 1 mps 624 mmHg 53%
    11:00 +5°C° 0 mm 1 mps 624 mmHg 52%
    12:00 +5°C° 0 mm 2 mps 624 mmHg 51%
    13:00 +5°C° 0.1 mm 2 mps 623 mmHg 52%
    14:00 +5°C° 0.1 mm 2 mps 623 mmHg 54%
    15:00 +4°C° 0.1 mm 2 mps 623 mmHg 56%
    16:00 +5°C° 0.1 mm 1 mps 623 mmHg 61%
    17:00 +4°C° 0.1 mm 1 mps 622 mmHg 66%
    18:00 +3°C° 0.1 mm 1 mps 622 mmHg 71%
    19:00 +3°C° 0.2 mm 1 mps 622 mmHg 74%
    20:00 +3°C° 0.2 mm 1 mps 622 mmHg 77%
    21:00 +1°C° 0.2 mm 2 mps 622 mmHg 80%
    22:00 +1°C° 0.4 mm 2 mps 622 mmHg 81%
    23:00 +1°C° 0.4 mm 2 mps 622 mmHg 82%

    18 December, Tuesday

    Time Temperature Precipitation Wind Pressure Humidity
    00:00 +1°C° 0.4 mm 2 mps 622 mmHg 84%
    01:00 +1°C° 0.3 mm 2 mps 621 mmHg 84%
    02:00 +1°C° 0.3 mm 2 mps 621 mmHg 85%
    03:00 +2°C° 0.3 mm 1 mps 621 mmHg 86%
    04:00 -1°C° 0.6 mm 2 mps 621 mmHg 86%
    05:00 -1°C° 0.6 mm 2 mps 621 mmHg 87%
    06:00 -1°C° 0.6 mm 2 mps 621 mmHg 87%
    07:00 -1°C° 0.5 mm 2 mps 621 mmHg 86%
    08:00 +1°C° 0.5 mm 2 mps 621 mmHg 86%
    09:00 +1°C° 0.5 mm 2 mps 621 mmHg 86%
    10:00 +1°C° 0.7 mm 2 mps 621 mmHg 85%
    11:00 +1°C° 0.7 mm 2 mps 621 mmHg 85%
    12:00 +1°C° 0.7 mm 2 mps 621 mmHg 84%
    13:00 +2°C° 0.3 mm 1 mps 621 mmHg 83%
    14:00 +3°C° 0.3 mm 1 mps 621 mmHg 82%
    15:00 +3°C° 0.3 mm 1 mps 621 mmHg 81%
    16:00 +2°C° 0 mm 1 mps 621 mmHg 82%
    17:00 +1°C° 0 mm 1 mps 621 mmHg 84%
    18:00 -1°C° 0 mm 0 mps 621 mmHg 85%
    19:00 0°C° 0 mm 1 mps 621 mmHg 84%
    20:00 0°C° 0 mm 1 mps 622 mmHg 84%
    21:00 0°C° 0 mm 1 mps 622 mmHg 83%
    22:00 0°C° 0 mm 1 mps 622 mmHg 84%
    23:00 0°C° 0 mm 1 mps 622 mmHg 84%

    19 December, Wednesday

    Time Temperature Precipitation Wind Pressure Humidity
    00:00 0°C° 0 mm 1 mps 622 mmHg 85%
    01:00 0°C° 0.1 mm 1 mps 622 mmHg 86%
    02:00 0°C° 0.1 mm 1 mps 622 mmHg 87%
    03:00 +1°C° 0.1 mm 1 mps 622 mmHg 88%
    04:00 -1°C° 0.1 mm 2 mps 623 mmHg 88%
    05:00 -1°C° 0.1 mm 2 mps 623 mmHg 89%
    06:00 -1°C° 0.1 mm 2 mps 623 mmHg 89%
    07:00 -1°C° 0 mm 2 mps 623 mmHg 88%
    08:00 +1°C° 0 mm 2 mps 623 mmHg 86%
    09:00 +2°C° 0 mm 2 mps 624 mmHg 85%
    10:00 +2°C° 0 mm 2 mps 624 mmHg 82%
    11:00 +3°C° 0 mm 2 mps 623 mmHg 80%
    12:00 +4°C° 0 mm 2 mps 623 mmHg 78%
    13:00 +4°C° 0 mm 2 mps 623 mmHg 76%
    14:00 +4°C° 0 mm 2 mps 623 mmHg 75%
    15:00 +4°C° 0 mm 2 mps 623 mmHg 73%
    16:00 +3°C° 0 mm 2 mps 622 mmHg 75%
    17:00 +2°C° 0 mm 2 mps 622 mmHg 76%
    18:00 +1°C° 0 mm 2 mps 622 mmHg 78%
    19:00 +1°C° 0 mm 2 mps 622 mmHg 78%
    20:00 -1°C° 0 mm 2 mps 622 mmHg 78%
    21:00 -1°C° 0 mm 2 mps 622 mmHg 78%
    22:00 -1°C° 0 mm 2 mps 622 mmHg 78%
    23:00 -1°C° 0 mm 2 mps 621 mmHg 79%

    20 December, Thursday

    Time Temperature Precipitation Wind Pressure Humidity
    00:00 -1°C° 0 mm 2 mps 621 mmHg 79%
    01:00 -1°C° 0 mm 2 mps 621 mmHg 79%
    02:00 -1°C° 0 mm 2 mps 621 mmHg 80%
    03:00 -1°C° 0 mm 2 mps 621 mmHg 81%
    04:00 -1°C° 0 mm 2 mps 621 mmHg 81%
    05:00 +1°C° 0 mm 1 mps 621 mmHg 82%
    06:00 +1°C° 0 mm 1 mps 621 mmHg 83%
    07:00 +1°C° 0 mm 1 mps 621 mmHg 81%
    08:00 +2°C° 0 mm 1 mps 621 mmHg 80%
    09:00 +2°C° 0 mm 2 mps 621 mmHg 78%
    10:00 +2°C° 0 mm 2 mps 621 mmHg 76%
    11:00 +3°C° 0 mm 2 mps 621 mmHg 75%
    12:00 +4°C° 0 mm 2 mps 621 mmHg 73%
    13:00 +4°C° 0 mm 2 mps 621 mmHg 71%
    14:00 +4°C° 0 mm 2 mps 620 mmHg 70%
    15:00 +4°C° 0 mm 2 mps 620 mmHg 69%
    16:00 +3°C° 0 mm 2 mps 620 mmHg 71%
    17:00 +2°C° 0 mm 2 mps 620 mmHg 74%
    18:00 +2°C° 0 mm 1 mps 620 mmHg 76%
    19:00 +2°C° 0 mm 1 mps 620 mmHg 77%
    20:00 +2°C° 0 mm 1 mps 621 mmHg 77%
    21:00 +2°C° 0 mm 1 mps 621 mmHg 78%
    22:00 +2°C° 0.1 mm 1 mps 621 mmHg 79%
    23:00 +1°C° 0.1 mm 1 mps 621 mmHg 80%
    Show more